Weather History for Newberry, MI

Change the Weather History Date:

Monday, September 23, 2013

  Actual Average Record
Temperature  
Mean Temperature 44 °F -  
Max Temperature 57 °F 60 °F 82 °F (1920)
Min Temperature 32 °F 39 °F 26 °F (1974)
Degree Days  
Heating Degree Days 20    
Moisture  
Dew Point 39 °F    
Average Humidity 83    
Maximum Humidity 99    
Minimum Humidity 59    
Precipitation  
Precipitation 0.00 in - - ()
Sea Level Pressure  
Sea Level Pressure 30.15 in    
Wind  
Wind Speed 3 mph (SSE)    
Max Wind Speed 12 mph    
Max Gust Speed 18 mph    
Visibility 10 miles    
Events      
Averages and records for this station are not official NWS values.
T = Trace of Precipitation, MM = Missing Value Source: NWS Daily Summary

Daily Weather History Graph

Daily Weather History Graph

Search for Another Location

Airport:

Trip Planner

Search our weather history database for the weather conditions in past years. The results will help you decide how hot, cold, wet, or windy it might be!

Date:

Astronomy

Sep. 23, 2013 Rise Set
Actual Time 7:30 AM EDT 7:36 PM EDT
Civil Twilight 7:00 AM EDT 8:06 PM EDT
Nautical Twilight 6:25 AM EDT 8:42 PM EDT
Astronomical Twilight 5:48 AM EDT 9:18 PM EDT
Moon 9:52 PM EDT (9/23) 12:04 PM EDT (9/23)
Length of Visible Light 13h 06m
Length of Day
12h 06m
Waning Gibbous, 81% of the Moon is Illuminated
Sep 23
Waning Gibbous
Sep 26
Last Quarter
Oct 4
New
Oct 11
First Quarter
Oct 18
Full

Hourly Weather History & Observations

Time (EDT) Temp. Windchill Dew Point Humidity Pressure Visibility Wind Dir Wind Speed Gust Speed Precip Events Conditions
12:15 AM 34.9 °F - 34.3 °F 98% 30.11 in 10.0 mi Calm Calm - N/A   Clear
12:36 AM 34.7 °F - 34.0 °F 97% 30.11 in 10.0 mi Calm Calm - N/A   Clear
12:56 AM 33.8 °F - 33.1 °F 97% 30.11 in 10.0 mi Calm Calm - N/A   Clear
1:15 AM 34.7 °F - 34.0 °F 97% 30.12 in 10.0 mi Calm Calm - N/A   Clear
1:36 AM 33.1 °F - 32.7 °F 99% 30.12 in 10.0 mi Calm Calm - N/A   Clear
1:56 AM 33.1 °F - 32.9 °F 99% 30.12 in 10.0 mi Calm Calm - N/A   Clear
2:16 AM 33.8 °F - 33.1 °F 97% 30.12 in 10.0 mi Calm Calm - N/A   Clear
2:36 AM 33.4 °F - 32.9 °F 98% 30.12 in 10.0 mi Calm Calm - N/A   Clear
2:56 AM 32.7 °F - 32.0 °F 97% 30.13 in 10.0 mi Calm Calm - N/A   Clear
3:16 AM 32.4 °F - 32.0 °F 99% 30.13 in 10.0 mi Calm Calm - N/A   Clear
3:36 AM 33.4 °F - 32.5 °F 96% 30.13 in 10.0 mi Calm Calm - N/A   Clear
3:56 AM 33.3 °F - 32.7 °F 98% 30.13 in 10.0 mi Calm Calm - N/A   Clear
4:16 AM 32.9 °F - 32.0 °F 96% 30.13 in 10.0 mi Calm Calm - N/A   Clear
4:36 AM 33.4 °F - 32.7 °F 97% 30.14 in 10.0 mi Calm Calm - N/A   Clear
4:56 AM 33.3 °F - 32.5 °F 97% 30.14 in 10.0 mi Calm Calm - N/A   Mostly Cloudy
5:16 AM 33.1 °F - 32.4 °F 97% 30.14 in 10.0 mi Calm Calm - N/A   Overcast
5:36 AM 33.6 °F - 32.9 °F 97% 30.14 in 10.0 mi Calm Calm - N/A   Overcast
5:56 AM 34.3 °F - 33.4 °F 97% 30.15 in 10.0 mi Calm Calm - N/A   Overcast
6:16 AM 36.5 °F - 35.8 °F 97% 30.15 in 10.0 mi Calm Calm - N/A   Overcast
6:36 AM 37.0 °F - 36.5 °F 98% 30.16 in 10.0 mi Calm Calm - N/A   Overcast
6:56 AM 38.3 °F - 37.4 °F 97% 30.16 in 10.0 mi Calm Calm - N/A   Overcast
7:15 AM 39.2 °F - 37.8 °F 95% 30.16 in 10.0 mi Calm Calm - N/A   Overcast
7:36 AM 39.4 °F - 38.1 °F 95% 30.17 in 10.0 mi Calm Calm - N/A   Overcast
7:56 AM 39.7 °F 37.6 °F 37.4 °F 91% 30.17 in 10.0 mi East 3.5 mph - N/A   Overcast
8:16 AM 39.2 °F - 37.4 °F 93% 30.18 in 10.0 mi Calm Calm - N/A   Overcast
8:36 AM 39.6 °F - 37.6 °F 93% 30.18 in 10.0 mi Calm Calm - N/A   Overcast
8:56 AM 40.5 °F 38.4 °F 36.9 °F 87% 30.18 in 10.0 mi East 3.5 mph - N/A   Overcast
9:16 AM 41.2 °F 39.2 °F 37.6 °F 87% 30.18 in 10.0 mi ESE 3.5 mph - N/A   Overcast
9:36 AM 42.1 °F 39.2 °F 38.3 °F 86% 30.18 in 10.0 mi ESE 4.6 mph - N/A   Overcast
9:56 AM 43.5 °F 40.9 °F 39.9 °F 87% 30.18 in 10.0 mi ESE 4.6 mph - N/A   Overcast
10:16 AM 44.8 °F 42.4 °F 41.2 °F 87% 30.19 in 10.0 mi ESE 4.6 mph - N/A   Overcast
10:36 AM 46.2 °F 44.1 °F 42.1 °F 85% 30.19 in 10.0 mi ESE 4.6 mph - N/A   Overcast
10:55 AM 48.0 °F - 42.8 °F 82% 30.19 in 10.0 mi ESE 4.6 mph - N/A   Overcast
11:16 AM 49.6 °F - 43.5 °F 79% 30.19 in 10.0 mi ESE 5.8 mph - N/A   Overcast
11:36 AM 52.0 °F - 44.6 °F 76% 30.19 in 10.0 mi ESE 8.1 mph - N/A   Overcast
11:56 AM 54.0 °F - 43.3 °F 67% 30.19 in 10.0 mi SE 11.5 mph - N/A   Overcast
12:15 PM 54.3 °F - 43.0 °F 66% 30.19 in 10.0 mi South 9.2 mph 18.4 mph N/A   Overcast
12:36 PM 53.8 °F - 42.6 °F 66% 30.19 in 10.0 mi SSE 10.4 mph 16.1 mph N/A   Overcast
12:56 PM 54.3 °F - 42.8 °F 65% 30.19 in 10.0 mi SE 8.1 mph - N/A   Overcast
1:16 PM 54.3 °F - 42.8 °F 65% 30.19 in 10.0 mi SSE 11.5 mph - N/A   Overcast
1:36 PM 54.9 °F - 43.0 °F 64% 30.19 in 10.0 mi SSW 6.9 mph - N/A   Mostly Cloudy
1:55 PM 53.8 °F - 43.2 °F 67% 30.18 in 10.0 mi South 9.2 mph - N/A   Overcast
2:16 PM 56.3 °F - 43.3 °F 62% 30.18 in 10.0 mi South 6.9 mph - N/A   Mostly Cloudy
2:36 PM 55.8 °F - 43.3 °F 63% 30.17 in 10.0 mi South 10.4 mph - N/A   Mostly Cloudy
2:56 PM 57.2 °F - 43.5 °F 60% 30.16 in 10.0 mi SSW 10.4 mph - N/A   Mostly Cloudy
3:16 PM 56.5 °F - 43.2 °F 61% 30.16 in 10.0 mi SSE 8.1 mph - N/A   Mostly Cloudy
3:36 PM 56.5 °F - 43.5 °F 62% 30.16 in 10.0 mi South 6.9 mph - N/A   Mostly Cloudy
3:55 PM 56.5 °F - 42.4 °F 59% 30.15 in 10.0 mi South 9.2 mph - N/A   Mostly Cloudy
4:16 PM 56.7 °F - 42.3 °F 59% 30.15 in 10.0 mi SSE 8.1 mph - N/A   Scattered Clouds
4:36 PM 57.0 °F - 42.6 °F 59% 30.15 in 10.0 mi South 11.5 mph - N/A   Clear
4:56 PM 56.8 °F - 42.4 °F 59% 30.14 in 10.0 mi South 5.8 mph - N/A   Clear
5:16 PM 56.7 °F - 42.6 °F 59% 30.14 in 10.0 mi SSW 8.1 mph - N/A   Clear
5:36 PM 56.5 °F - 42.8 °F 60% 30.14 in 10.0 mi SSE 9.2 mph - N/A   Clear
5:56 PM 55.8 °F - 42.4 °F 61% 30.14 in 10.0 mi SSE 10.4 mph - N/A   Clear
6:16 PM 55.0 °F - 42.1 °F 62% 30.14 in 10.0 mi SSE 8.1 mph - N/A   Clear
6:36 PM 54.5 °F - 42.1 °F 63% 30.14 in 10.0 mi South 6.9 mph - N/A   Clear
6:56 PM 53.6 °F - 42.1 °F 65% 30.14 in 10.0 mi South 4.6 mph - N/A   Clear
7:16 PM 51.8 °F - 42.4 °F 70% 30.14 in 10.0 mi South 3.5 mph - N/A   Clear
7:35 PM 49.8 °F - 42.3 °F 75% 30.13 in 10.0 mi South 4.6 mph - N/A   Clear
7:56 PM 47.1 °F - 42.6 °F 84% 30.13 in 10.0 mi South 4.6 mph - N/A   Clear
8:16 PM 46.9 °F - 41.9 °F 83% 30.13 in 10.0 mi South 4.6 mph - N/A   Clear
8:35 PM 45.9 °F - 41.4 °F 84% 30.13 in 10.0 mi Calm Calm - N/A   Clear
8:56 PM 44.2 °F 42.7 °F 42.4 °F 93% 30.14 in 10.0 mi SSE 3.5 mph - N/A   Clear
9:16 PM 41.9 °F - 40.5 °F 95% 30.14 in 10.0 mi Calm Calm - N/A   Clear
9:36 PM 41.5 °F - 40.3 °F 95% 30.14 in 10.0 mi Calm Calm - N/A   Clear
9:56 PM 41.9 °F - 40.3 °F 94% 30.14 in 10.0 mi Calm Calm - N/A   Clear
10:16 PM 41.2 °F - 40.5 °F 97% 30.14 in 10.0 mi Calm Calm - N/A   Clear
10:36 PM 41.2 °F 39.2 °F 40.5 °F 97% 30.14 in 10.0 mi SE 3.5 mph - N/A   Clear
10:56 PM 42.6 °F 40.9 °F 40.1 °F 91% 30.14 in 10.0 mi SSE 3.5 mph - N/A   Clear
11:15 PM 41.9 °F 39.0 °F 39.9 °F 93% 30.14 in 10.0 mi SSE 4.6 mph - N/A   Clear
11:36 PM 42.3 °F 39.4 °F 40.5 °F 93% 30.13 in 10.0 mi SE 4.6 mph - N/A   Clear
11:56 PM 41.9 °F 38.2 °F 40.6 °F 95% 30.13 in 10.0 mi SE 5.8 mph - N/A   Clear